Hartford, CT

7:17 PM EDT on July 29, 2016 (GMT -0400)
Bradley International

Weather History for KBDL - March, 2014

Change the Weather History Date:

Monday, March 10, 2014

  Actual Average Record
Temperature  
Mean Temperature 38 °F 36 °F  
Max Temperature 45 °F 45 °F 72 °F (2016)
Min Temperature 30 °F 26 °F 1 °F (1984)
Degree Days  
Heating Degree Days 27 29  
Month to date heating degree days 396 307  
Since 1 July heating degree days 5075 4745  
Cooling Degree Days 0 0  
Month to date cooling degree days 0 0  
Year to date cooling degree days 0 0  
Moisture  
Dew Point 22 °F    
Average Humidity 59    
Maximum Humidity 70    
Minimum Humidity 47    
Precipitation  
Precipitation 0.00 in 0.11 in 1.65 in (1994)
Month to date precipitation T 1.11  
Year to date precipitation 7.37 7.23  
Snow  
Snow 0.00 in 0.30 in 5.30 in (1928)
Month to date snowfall T 2.6  
Since 1 July snowfall 50.1 35.3  
Snow Depth 0.00 in    
Sea Level Pressure  
Sea Level Pressure 29.76 in    
Wind  
Wind Speed 6 mph (South)    
Max Wind Speed 13 mph    
Max Gust Speed 16 mph    
Visibility 10 miles    
Events      
T = Trace of Precipitation, MM = Missing Value Source: NWS Daily Summary

Daily Weather History Graph

Daily Weather History Graph

Search for Another Location

Airport or City:

Trip Planner

Search our weather history database for the weather conditions in past years. The results will help you decide how hot, cold, wet, or windy it might be!

Date:

Astronomy

Mar. 10, 2014 Rise Set
Actual Time 7:11 AM EDT 6:51 PM EDT
Civil Twilight 6:43 AM EDT 7:19 PM EDT
Nautical Twilight 6:11 AM EDT 7:51 PM EDT
Astronomical Twilight 5:38 AM EDT 8:24 PM EDT
Moon 1:28 PM EDT (3/10) 3:24 AM EDT (3/10)
Length of Visible Light 12h 36m
Length of Day
11h 40m
Waxing Gibbous, 70% of the Moon is Illuminated
Mar 10
Waxing Gibbous
Mar 16
Full
Mar 23
Last Quarter
Mar 30
New
Apr 7
First Quarter

Hourly Weather History & Observations

Time (EDT) Temp. Windchill Dew Point Humidity Pressure Visibility Wind Dir Wind Speed Gust Speed Precip Events Conditions
12:51 AM 30.9 °F 26.2 °F 12.0 °F 46% 29.89 in 10.0 mi WSW 4.6 mph - N/A   Overcast
1:51 AM 30.0 °F 24.1 °F 12.0 °F 47% 29.87 in 10.0 mi SW 5.8 mph - N/A   Mostly Cloudy
2:51 AM 30.0 °F 25.2 °F 15.1 °F 54% 29.86 in 10.0 mi SSE 4.6 mph - N/A   Mostly Cloudy
3:51 AM 30.0 °F - 16.0 °F 56% 29.84 in 10.0 mi Calm Calm - N/A   Mostly Cloudy
4:51 AM 30.0 °F 26.5 °F 17.1 °F 59% 29.82 in 10.0 mi South 3.5 mph - N/A   Mostly Cloudy
5:51 AM 30.0 °F 26.5 °F 17.1 °F 59% 29.81 in 10.0 mi South 3.5 mph - N/A   Mostly Cloudy
6:51 AM 30.9 °F - 18.0 °F 59% 29.81 in 10.0 mi Calm Calm - N/A   Mostly Cloudy
7:51 AM 30.0 °F - 19.0 °F 64% 29.80 in 10.0 mi Calm Calm - N/A   Overcast
8:51 AM 32.0 °F 26.4 °F 19.9 °F 61% 29.80 in 10.0 mi South 5.8 mph - N/A   Overcast
9:51 AM 35.1 °F 30.1 °F 19.9 °F 54% 29.81 in 10.0 mi SSW 5.8 mph - N/A   Overcast
10:51 AM 37.0 °F 31.0 °F 21.9 °F 54% 29.80 in 10.0 mi SW 8.1 mph - N/A   Overcast
11:51 AM 37.9 °F 32.1 °F 21.9 °F 53% 29.78 in 10.0 mi SSW 8.1 mph - N/A   Overcast
12:51 PM 37.9 °F 32.1 °F 26.1 °F 62% 29.77 in 10.0 mi South 8.1 mph - N/A   Overcast
1:51 PM 39.9 °F 36.7 °F 25.0 °F 55% 29.75 in 10.0 mi SSW 4.6 mph - N/A   Overcast
2:51 PM 43.0 °F 41.3 °F 24.1 °F 47% 29.72 in 10.0 mi Variable 3.5 mph - N/A   Mostly Cloudy
3:51 PM 43.0 °F 40.3 °F 25.0 °F 49% 29.71 in 10.0 mi East 4.6 mph - N/A   Mostly Cloudy
4:51 PM 43.0 °F 38.8 °F 25.0 °F 49% 29.69 in 10.0 mi East 6.9 mph - N/A   Mostly Cloudy
5:51 PM 43.0 °F 38.8 °F 25.0 °F 49% 29.68 in 10.0 mi East 6.9 mph - N/A   Overcast
6:51 PM 41.0 °F 37.1 °F 27.0 °F 57% 29.68 in 10.0 mi SE 5.8 mph - N/A   Overcast
7:51 PM 39.9 °F 35.1 °F 28.0 °F 63% 29.69 in 10.0 mi South 6.9 mph - N/A   Mostly Cloudy
8:51 PM 39.0 °F 34.0 °F 28.0 °F 65% 29.69 in 10.0 mi South 6.9 mph - N/A   Overcast
9:51 PM 39.0 °F 33.4 °F 28.0 °F 65% 29.67 in 10.0 mi South 8.1 mph - N/A   Overcast
10:51 PM 39.0 °F 34.8 °F 28.0 °F 65% 29.65 in 10.0 mi South 5.8 mph - N/A   Overcast
11:51 PM 37.9 °F 31.5 °F 28.0 °F 68% 29.60 in 10.0 mi South 9.2 mph - N/A   Overcast